| time (UTC) | temp F | wind direction | speed knots | gust knots | rain 1hr in | rain 24hr in | rain mn in | humidity % | barometer mb |
| 20260905143712 | 71 | 117 | 3.5 | 4.3 | 0.00 | 0.00 | 0.00 | 69 | 983.0 |
| 20260905143212 | 71 | 147 | 2.6 | 5.2 | 0.00 | 0.00 | 0.00 | 70 | 983.0 |
| 20260905142711 | 70 | 100 | 2.6 | 4.3 | 0.00 | 0.00 | 0.00 | 70 | 983.1 |
| 20260905142210 | 70 | 108 | 2.6 | 4.3 | 0.00 | 0.00 | 0.00 | 69 | 983.0 |
| 20260905141710 | 70 | 98 | 3.5 | 5.2 | 0.00 | 0.00 | 0.00 | 69 | 983.0 |
| 20260905141210 | 70 | 58 | 2.6 | 4.3 | 0.00 | 0.00 | 0.00 | 72 | 983.0 |
| 20260905140710 | 70 | 139 | 4.3 | 7.0 | 0.00 | 0.00 | 0.00 | 71 | 983.1 |
| 20260905140209 | 70 | 87 | 2.6 | 3.5 | 0.00 | 0.00 | 0.00 | 72 | 983.1 |
| 20260905135709 | 69 | 153 | 1.7 | 2.6 | 0.00 | 0.00 | 0.00 | 75 | 983.1 |
| 20260905134648 | 68 | 73 | 3.5 | 6.1 | 0.00 | 0.00 | 0.00 | 78 | 983.1 |
| 20260905134147 | 68 | 117 | 4.3 | 7.0 | 0.00 | 0.00 | 0.00 | 79 | 983.0 |
| 20260905133647 | 68 | 106 | 2.6 | 5.2 | 0.00 | 0.00 | 0.00 | 80 | 983.1 |
| 20260905132626 | 67 | 121 | 3.5 | 7.0 | 0.00 | 0.00 | 0.00 | 81 | 983.2 |
| 20260905132125 | 67 | 88 | 4.3 | 6.1 | 0.00 | 0.00 | 0.00 | 83 | 983.2 |
| 20260905131625 | 67 | 109 | 2.6 | 4.3 | 0.00 | 0.00 | 0.00 | 83 | 983.3 |
| 20260905131125 | 66 | 77 | 3.5 | 6.1 | 0.00 | 0.00 | 0.00 | 84 | 983.3 |
| 20260905130625 | 66 | 91 | 3.5 | 5.2 | 0.00 | 0.00 | 0.00 | 84 | 983.3 |
| 20260905130124 | 66 | 66 | 2.6 | 4.3 | 0.00 | 0.00 | 0.00 | 85 | 983.4 |
| 20260905125624 | 66 | 139 | 1.7 | 3.5 | 0.00 | 0.00 | 0.00 | 85 | 983.4 |
| 20260905125124 | 66 | 109 | 1.7 | 3.5 | 0.00 | 0.00 | 0.00 | 85 | 983.4 |
| 20260905124624 | 65 | 109 | 2.6 | 3.5 | 0.00 | 0.00 | 0.00 | 86 | 983.5 |
| 20260905124124 | 65 | 134 | 2.6 | 3.5 | 0.00 | 0.00 | 0.00 | 87 | 983.4 |
| 20260905123624 | 65 | 117 | 2.6 | 3.5 | 0.00 | 0.00 | 0.00 | 87 | 983.5 |
| 20260905122602 | 65 | 145 | 1.7 | 2.6 | 0.00 | 0.00 | 0.00 | 86 | 983.3 |
| 20260905122102 | 64 | 102 | 1.7 | 3.5 | 0.00 | 0.00 | 0.00 | 88 | 983.4 |
| 20260905121602 | 64 | 127 | 3.5 | 4.3 | 0.00 | 0.00 | 0.00 | 88 | 983.4 |
| 20260905120540 | 63 | 92 | 0.9 | 1.7 | 0.00 | 0.00 | 0.00 | 89 | 983.5 |
| 20260905120040 | 63 | 101 | 1.7 | 3.5 | 0.00 | 0.00 | 0.00 | 89 | 983.5 |
| 20260905115540 | 63 | 64 | 1.7 | 2.6 | 0.00 | 0.00 | 0.00 | 90 | 983.5 |
| 20260905115039 | 62 | 132 | 0.9 | 0.9 | 0.00 | 0.00 | 0.00 | 91 | 983.6 |
| 20260905114539 | 62 | 65 | 0.9 | 2.6 | 0.00 | 0.00 | 0.00 | 92 | 983.6 |
| 20260905114039 | 61 | 141 | 0.9 | 1.7 | 0.00 | 0.00 | 0.00 | 94 | 983.5 |
| 20260905113539 | 60 | 0 | 0.0 | 0.0 | 0.00 | 0.00 | 0.00 | 96 | 983.5 |
| 20260905113039 | 60 | 54 | 0.9 | 1.7 | 0.00 | 0.00 | 0.00 | 96 | 983.4 |
| 20260905112539 | 59 | 0 | 0.0 | 0.0 | 0.00 | 0.00 | 0.00 | 97 | 983.4 |
| 20260905112038 | 59 | 0 | 0.0 | 0.0 | 0.00 | 0.00 | 0.00 | 97 | 983.4 |
| 20260905111538 | 59 | 0 | 0.0 | 0.0 | 0.00 | 0.00 | 0.00 | 97 | 983.4 |
| 20260905111038 | 59 | 217 | 0.0 | 0.9 | 0.00 | 0.00 | 0.00 | 97 | 983.3 |
| 20260905110537 | 60 | 0 | 0.0 | 0.0 | 0.00 | 0.00 | 0.00 | 96 | 983.2 |
| 20260905110037 | 60 | 0 | 0.0 | 0.0 | 0.00 | 0.00 | 0.00 | 96 | 983.1 |
| 20260905105536 | 60 | 0 | 0.0 | 0.0 | 0.00 | 0.00 | 0.00 | 96 | 983.1 |
| 20260905105035 | 60 | 0 | 0.0 | 0.0 | 0.00 | 0.00 | 0.00 | 96 | 983.0 |
| 20260905103453 | 61 | 0 | 0.0 | 0.0 | 0.00 | 0.00 | 0.00 | 95 | 982.8 |
| 20260905102953 | 61 | 0 | 0.0 | 0.0 | 0.00 | 0.00 | 0.00 | 95 | 982.6 |
| 20260905102452 | 61 | 94 | 1.7 | 2.6 | 0.00 | 0.00 | 0.00 | 94 | 982.5 |
| 20260905101952 | 62 | 166 | 1.7 | 2.6 | 0.00 | 0.00 | 0.00 | 94 | 982.5 |
| 20260905101452 | 62 | 137 | 0.9 | 0.9 | 0.00 | 0.00 | 0.00 | 94 | 982.5 |
| 20260905100952 | 62 | 87 | 1.7 | 3.5 | 0.00 | 0.00 | 0.00 | 93 | 982.5 |
| 20260905100452 | 62 | 75 | 2.6 | 5.2 | 0.00 | 0.00 | 0.00 | 93 | 982.4 |
| 20260905095951 | 62 | 149 | 0.9 | 1.7 | 0.00 | 0.00 | 0.00 | 93 | 982.5 |
| 20260905093848 | 63 | 75 | 1.7 | 3.5 | 0.00 | 0.00 | 0.00 | 92 | 982.4 |
| 20260905092826 | 63 | 74 | 1.7 | 2.6 | 0.00 | 0.00 | 0.00 | 91 | 982.3 |
| 20260905092326 | 63 | 82 | 1.7 | 3.5 | 0.00 | 0.00 | 0.00 | 91 | 982.3 |
| 20260905091826 | 63 | 49 | 0.9 | 1.7 | 0.00 | 0.00 | 0.00 | 91 | 982.3 |
| 20260905091326 | 63 | 130 | 0.9 | 1.7 | 0.00 | 0.00 | 0.00 | 91 | 982.2 |
| 20260905090826 | 63 | 82 | 1.7 | 2.6 | 0.00 | 0.00 | 0.00 | 91 | 982.3 |
| 20260905090325 | 64 | 89 | 0.9 | 3.5 | 0.00 | 0.00 | 0.00 | 91 | 982.4 |
| 20260905085825 | 64 | 75 | 1.7 | 3.5 | 0.00 | 0.00 | 0.00 | 91 | 982.5 |
| 20260905085325 | 64 | 76 | 2.6 | 3.5 | 0.00 | 0.00 | 0.00 | 91 | 982.7 |
| 20260905084825 | 64 | 69 | 0.0 | 0.9 | 0.00 | 0.00 | 0.00 | 91 | 982.8 |
| 20260905084324 | 64 | 101 | 1.7 | 2.6 | 0.00 | 0.00 | 0.00 | 91 | 982.8 |
| 20260905083303 | 64 | 76 | 0.9 | 2.6 | 0.00 | 0.00 | 0.00 | 92 | 982.6 |
| 20260905082803 | 64 | 67 | 0.9 | 1.7 | 0.00 | 0.00 | 0.00 | 92 | 982.5 |
| 20260905082306 | 64 | 110 | 1.7 | 2.6 | 0.00 | 0.00 | 0.00 | 93 | 982.5 |
| 20260905081802 | 64 | 48 | 0.9 | 2.6 | 0.00 | 0.00 | 0.00 | 93 | 982.4 |
| 20260905081302 | 64 | 116 | 1.7 | 2.6 | 0.00 | 0.00 | 0.00 | 93 | 982.4 |
| 20260905080240 | 64 | 143 | 1.7 | 3.5 | 0.00 | 0.00 | 0.00 | 93 | 982.1 |
| 20260905075739 | 64 | 112 | 1.7 | 2.6 | 0.00 | 0.00 | 0.00 | 94 | 982.1 |
| 20260905075239 | 64 | 115 | 1.7 | 2.6 | 0.00 | 0.00 | 0.00 | 94 | 982.1 |
| 20260905074738 | 64 | 106 | 0.9 | 1.7 | 0.00 | 0.00 | 0.00 | 94 | 982.1 |
| 20260905073716 | 64 | 96 | 0.9 | 1.7 | 0.00 | 0.00 | 0.00 | 94 | 982.0 |
| 20260905073216 | 63 | 111 | 2.6 | 3.5 | 0.00 | 0.00 | 0.00 | 94 | 982.0 |
| 20260905072716 | 63 | 110 | 1.7 | 2.6 | 0.00 | 0.00 | 0.00 | 95 | 982.0 |
| 20260905072216 | 63 | 55 | 1.7 | 2.6 | 0.00 | 0.00 | 0.00 | 95 | 981.9 |
| 20260905071715 | 63 | 69 | 2.6 | 4.3 | 0.00 | 0.00 | 0.00 | 96 | 981.9 |
| 20260905071215 | 63 | 0 | 0.0 | 0.0 | 0.00 | 0.00 | 0.00 | 96 | 982.0 |
| 20260905070714 | 63 | 56 | 0.9 | 1.7 | 0.00 | 0.00 | 0.00 | 96 | 982.1 |
| 20260905070214 | 63 | 0 | 0.0 | 0.0 | 0.00 | 0.00 | 0.00 | 96 | 982.1 |
| 20260905065714 | 63 | 0 | 0.0 | 0.0 | 0.00 | 0.00 | 0.00 | 96 | 982.1 |
| 20260905065213 | 63 | 0 | 0.0 | 0.0 | 0.00 | 0.00 | 0.00 | 96 | 982.2 |
| 20260905064713 | 63 | 0 | 0.0 | 0.0 | 0.00 | 0.00 | 0.00 | 96 | 982.2 |
| 20260905064213 | 63 | 58 | 0.9 | 0.9 | 0.00 | 0.00 | 0.00 | 96 | 982.1 |
| 20260905063713 | 63 | 100 | 0.9 | 1.7 | 0.00 | 0.00 | 0.00 | 96 | 982.1 |
| 20260905063212 | 64 | 102 | 0.9 | 1.7 | 0.00 | 0.00 | 0.00 | 96 | 982.0 |
| 20260905062150 | 64 | 56 | 0.9 | 1.7 | 0.00 | 0.00 | 0.00 | 95 | 982.2 |
| 20260905061650 | 64 | 0 | 0.0 | 0.0 | 0.00 | 0.00 | 0.00 | 96 | 982.2 |
| 20260905061150 | 64 | 135 | 0.9 | 1.7 | 0.00 | 0.00 | 0.00 | 95 | 982.1 |
| 20260905060650 | 64 | 103 | 1.7 | 2.6 | 0.00 | 0.00 | 0.00 | 96 | 982.2 |
| 20260905055107 | 64 | 132 | 0.9 | 1.7 | 0.00 | 0.00 | 0.00 | 96 | 982.3 |
| 20260905054045 | 65 | 55 | 0.9 | 1.7 | 0.00 | 0.00 | 0.00 | 96 | 982.4 |
| 20260905053545 | 65 | 0 | 0.0 | 0.0 | 0.00 | 0.00 | 0.00 | 96 | 982.4 |
| 20260905053045 | 65 | 0 | 0.0 | 0.0 | 0.00 | 0.00 | 0.00 | 95 | 982.4 |
| 20260905052023 | 66 | 132 | 0.9 | 1.7 | 0.00 | 0.00 | 0.00 | 95 | 982.4 |
| 20260905051522 | 66 | 82 | 1.7 | 2.6 | 0.00 | 0.00 | 0.00 | 94 | 982.4 |
| 20260905051022 | 66 | 69 | 0.9 | 1.7 | 0.00 | 0.00 | 0.00 | 94 | 982.5 |
| 20260905050522 | 67 | 87 | 0.9 | 2.6 | 0.00 | 0.00 | 0.00 | 93 | 982.5 |
| 20260905050022 | 67 | 105 | 1.7 | 1.7 | 0.00 | 0.00 | 0.00 | 93 | 982.5 |
| 20260905045521 | 67 | 91 | 1.7 | 2.6 | 0.00 | 0.00 | 0.00 | 92 | 982.5 |
| 20260905044502 | 67 | 91 | 1.7 | 2.6 | 0.00 | 0.00 | 0.00 | 91 | 982.5 |
| 20260905043438 | 68 | 108 | 1.7 | 3.5 | 0.00 | 0.00 | 0.00 | 90 | 982.5 |
| 20260905042938 | 68 | 81 | 0.9 | 1.7 | 0.00 | 0.00 | 0.00 | 91 | 982.5 |
| 20260905042437 | 68 | 0 | 0.0 | 0.0 | 0.00 | 0.00 | 0.00 | 91 | 982.6 |
| 20260905041937 | 68 | 88 | 1.7 | 2.6 | 0.00 | 0.00 | 0.00 | 90 | 982.6 |
| 20260905041437 | 68 | 39 | 0.9 | 1.7 | 0.00 | 0.00 | 0.00 | 91 | 982.6 |
| 20260905040937 | 68 | 0 | 0.0 | 0.0 | 0.00 | 0.00 | 0.00 | 91 | 982.6 |
| 20260905040437 | 68 | 0 | 0.0 | 0.0 | 0.00 | 0.00 | 0.00 | 91 | 982.6 |
| 20260905035936 | 68 | 0 | 0.0 | 0.0 | 0.00 | 0.00 | 0.00 | 91 | 982.6 |
| 20260905035436 | 68 | 36 | 0.9 | 1.7 | 0.00 | 0.00 | 0.00 | 91 | 982.6 |
| 20260905034936 | 68 | 124 | 0.9 | 0.9 | 0.00 | 0.00 | 0.00 | 91 | 982.7 |
| 20260905034435 | 68 | 38 | 0.9 | 3.5 | 0.00 | 0.00 | 0.00 | 91 | 982.7 |
| 20260905033935 | 68 | 0 | 0.0 | 0.0 | 0.00 | 0.00 | 0.00 | 92 | 982.7 |
| 20260905033434 | 68 | 64 | 1.7 | 2.6 | 0.00 | 0.00 | 0.00 | 92 | 982.8 |
| 20260905032934 | 68 | 359 | 0.9 | 1.7 | 0.00 | 0.00 | 0.00 | 93 | 982.8 |
| 20260905032433 | 68 | 0 | 0.0 | 0.0 | 0.00 | 0.00 | 0.00 | 93 | 982.8 |
| 20260905031933 | 68 | 0 | 0.0 | 0.0 | 0.00 | 0.00 | 0.00 | 93 | 982.8 |
| 20260905031433 | 68 | 0 | 0.0 | 0.0 | 0.00 | 0.00 | 0.00 | 94 | 982.7 |
| 20260905030412 | 68 | 0 | 0.0 | 0.0 | 0.00 | 0.00 | 0.00 | 94 | 982.7 |
| 20260905025912 | 68 | 0 | 0.0 | 0.0 | 0.00 | 0.00 | 0.00 | 94 | 982.8 |
| 20260905025411 | 68 | 0 | 0.0 | 0.0 | 0.00 | 0.00 | 0.00 | 95 | 982.8 |
| 20260905024910 | 68 | 0 | 0.0 | 0.0 | 0.00 | 0.00 | 0.00 | 95 | 982.8 |
| 20260905023849 | 68 | 0 | 0.0 | 0.0 | 0.00 | 0.00 | 0.00 | 94 | 982.8 |
| 20260905023349 | 68 | 0 | 0.0 | 0.0 | 0.00 | 0.00 | 0.00 | 94 | 982.8 |
| 20260905022327 | 68 | 0 | 0.0 | 0.0 | 0.00 | 0.00 | 0.00 | 94 | 982.7 |
| 20260905021826 | 68 | 0 | 0.0 | 0.0 | 0.00 | 0.00 | 0.00 | 94 | 982.6 |
| 20260905021325 | 68 | 0 | 0.0 | 0.0 | 0.00 | 0.00 | 0.00 | 94 | 982.7 |
| 20260905020825 | 68 | 0 | 0.0 | 0.0 | 0.00 | 0.00 | 0.00 | 93 | 982.7 |
| 20260905020325 | 68 | 0 | 0.0 | 0.0 | 0.00 | 0.00 | 0.00 | 93 | 982.7 |
| 20260905015824 | 68 | 0 | 0.0 | 0.0 | 0.00 | 0.00 | 0.00 | 92 | 982.7 |
| 20260905015323 | 68 | 0 | 0.0 | 0.0 | 0.00 | 0.00 | 0.00 | 90 | 982.7 |
| 20260905014302 | 68 | 0 | 0.0 | 0.0 | 0.00 | 0.00 | 0.00 | 90 | 982.7 |
| 20260905013802 | 68 | 0 | 0.0 | 0.0 | 0.00 | 0.00 | 0.00 | 91 | 982.6 |
| 20260905013302 | 68 | 0 | 0.0 | 0.0 | 0.00 | 0.00 | 0.00 | 91 | 982.6 |
| 20260905012802 | 68 | 0 | 0.0 | 0.0 | 0.00 | 0.00 | 0.00 | 90 | 982.6 |
| 20260905012305 | 68 | 0 | 0.0 | 0.0 | 0.00 | 0.00 | 0.00 | 88 | 982.5 |
| 20260905011801 | 69 | 0 | 0.0 | 0.0 | 0.00 | 0.00 | 0.00 | 90 | 982.5 |
| 20260905011300 | 69 | 0 | 0.0 | 0.0 | 0.00 | 0.00 | 0.00 | 88 | 982.5 |
| 20260905010800 | 69 | 0 | 0.0 | 0.0 | 0.00 | 0.00 | 0.00 | 89 | 982.5 |
| 20260905010300 | 69 | 0 | 0.0 | 0.0 | 0.00 | 0.00 | 0.00 | 88 | 982.5 |
| 20260905005759 | 69 | 0 | 0.0 | 0.0 | 0.00 | 0.00 | 0.00 | 87 | 982.4 |
| 20260905004737 | 70 | 0 | 0.0 | 0.0 | 0.00 | 0.00 | 0.00 | 85 | 982.4 |
| 20260905003716 | 70 | 100 | 0.9 | 1.7 | 0.00 | 0.00 | 0.00 | 86 | 982.3 |
| 20260905002654 | 70 | 0 | 0.0 | 0.0 | 0.00 | 0.00 | 0.00 | 86 | 982.3 |
| 20260905001633 | 70 | 0 | 0.0 | 0.0 | 0.00 | 0.00 | 0.00 | 87 | 982.3 |
| 20260905001133 | 70 | 0 | 0.0 | 0.0 | 0.00 | 0.00 | 0.00 | 87 | 982.3 |
| 20260905000633 | 70 | 0 | 0.0 | 0.0 | 0.00 | 0.00 | 0.00 | 85 | 982.3 |
| 20260905000132 | 70 | 0 | 0.0 | 0.0 | 0.00 | 0.00 | 0.00 | 84 | 982.4 |
| 20260904235111 | 70 | 124 | 0.9 | 1.7 | 0.00 | 0.00 | 0.00 | 84 | 982.4 |
| 20260904234611 | 70 | 54 | 0.9 | 1.7 | 0.00 | 0.00 | 0.00 | 84 | 982.4 |
| 20260904234111 | 70 | 94 | 0.9 | 1.7 | 0.00 | 0.00 | 0.00 | 84 | 982.4 |
| 20260904233610 | 71 | 104 | 0.9 | 1.7 | 0.00 | 0.00 | 0.00 | 85 | 982.4 |
| 20260904233110 | 71 | 110 | 0.9 | 1.7 | 0.00 | 0.00 | 0.00 | 84 | 982.3 |
| 20260904232610 | 71 | 103 | 0.9 | 1.7 | 0.00 | 0.00 | 0.00 | 84 | 982.2 |
| 20260904232110 | 71 | 71 | 1.7 | 2.6 | 0.00 | 0.00 | 0.00 | 84 | 982.2 |
| 20260904231610 | 71 | 56 | 0.9 | 2.6 | 0.00 | 0.00 | 0.00 | 84 | 982.2 |
| 20260904230548 | 71 | 117 | 0.9 | 1.7 | 0.00 | 0.00 | 0.00 | 83 | 982.2 |
| 20260904230048 | 71 | 141 | 0.9 | 1.7 | 0.00 | 0.00 | 0.00 | 84 | 982.2 |
| 20260904225548 | 71 | 64 | 0.9 | 1.7 | 0.00 | 0.00 | 0.00 | 85 | 982.1 |
| 20260904225047 | 71 | 114 | 0.9 | 1.7 | 0.00 | 0.00 | 0.00 | 85 | 982.1 |
| 20260904223505 | 71 | 122 | 0.9 | 1.7 | 0.00 | 0.00 | 0.00 | 86 | 981.9 |
| 20260904223005 | 71 | 96 | 2.6 | 3.5 | 0.00 | 0.00 | 0.00 | 86 | 981.8 |
| 20260904222504 | 71 | 65 | 1.7 | 2.6 | 0.00 | 0.00 | 0.00 | 86 | 981.9 |
| 20260904222004 | 71 | 63 | 1.7 | 3.5 | 0.00 | 0.00 | 0.00 | 87 | 981.8 |
| 20260904221503 | 71 | 73 | 2.6 | 4.3 | 0.00 | 0.00 | 0.00 | 86 | 981.7 |
| 20260904221002 | 71 | 51 | 1.7 | 3.5 | 0.00 | 0.00 | 0.00 | 86 | 981.7 |
| 20260904220502 | 71 | 77 | 3.5 | 5.2 | 0.00 | 0.00 | 0.00 | 86 | 981.6 |
| 20260904215441 | 71 | 75 | 2.6 | 5.2 | 0.00 | 0.00 | 0.00 | 86 | 981.5 |
| 20260904214940 | 71 | 79 | 1.7 | 2.6 | 0.00 | 0.00 | 0.00 | 87 | 981.5 |
| 20260904214439 | 71 | 100 | 1.7 | 4.3 | 0.00 | 0.00 | 0.00 | 86 | 981.3 |
| 20260904213418 | 71 | 94 | 3.5 | 4.3 | 0.00 | 0.00 | 0.00 | 87 | 981.3 |
| 20260904212918 | 71 | 91 | 2.6 | 3.5 | 0.00 | 0.00 | 0.00 | 87 | 981.4 |
| 20260904212417 | 72 | 80 | 2.6 | 5.2 | 0.00 | 0.00 | 0.00 | 89 | 981.4 |
| 20260904211917 | 72 | 99 | 2.6 | 4.3 | 0.00 | 0.00 | 0.00 | 90 | 981.3 |
| 20260904211417 | 72 | 66 | 2.6 | 5.2 | 0.00 | 0.00 | 0.00 | 91 | 981.4 |
| 20260904210917 | 72 | 80 | 2.6 | 4.3 | 0.00 | 0.00 | 0.00 | 90 | 981.4 |
| 20260904205855 | 72 | 91 | 2.6 | 4.3 | 0.00 | 0.00 | 0.00 | 90 | 981.3 |
| 20260904205355 | 72 | 108 | 3.5 | 5.2 | 0.00 | 0.00 | 0.00 | 89 | 981.3 |
| 20260904204855 | 72 | 77 | 2.6 | 3.5 | 0.00 | 0.00 | 0.00 | 89 | 981.3 |
| 20260904204355 | 72 | 76 | 1.7 | 4.3 | 0.00 | 0.00 | 0.00 | 89 | 981.3 |
| 20260904203855 | 72 | 45 | 1.7 | 2.6 | 0.00 | 0.00 | 0.00 | 90 | 981.2 |
| 20260904203354 | 72 | 57 | 2.6 | 4.3 | 0.00 | 0.00 | 0.00 | 90 | 981.3 |
| 20260904202854 | 72 | 75 | 1.7 | 4.3 | 0.00 | 0.00 | 0.00 | 90 | 981.3 |
| 20260904202354 | 72 | 81 | 2.6 | 4.3 | 0.00 | 0.00 | 0.00 | 89 | 981.4 |
| 20260904201854 | 72 | 70 | 2.6 | 3.5 | 0.00 | 0.00 | 0.00 | 90 | 981.4 |
| 20260904201353 | 72 | 65 | 2.6 | 4.3 | 0.00 | 0.00 | 0.00 | 90 | 981.5 |
| 20260904200853 | 72 | 78 | 2.6 | 4.3 | 0.00 | 0.00 | 0.00 | 89 | 981.5 |
| 20260904195832 | 72 | 94 | 1.7 | 4.3 | 0.00 | 0.00 | 0.00 | 90 | 981.5 |
| 20260904195332 | 72 | 120 | 2.6 | 4.3 | 0.00 | 0.00 | 0.00 | 91 | 981.6 |
| 20260904194831 | 73 | 145 | 3.5 | 5.2 | 0.00 | 0.00 | 0.00 | 90 | 981.7 |
| 20260904194331 | 72 | 118 | 2.6 | 5.2 | 0.00 | 0.00 | 0.00 | 91 | 981.7 |
| 20260904193831 | 72 | 120 | 0.9 | 2.6 | 0.00 | 0.00 | 0.00 | 91 | 981.8 |
| 20260904193330 | 72 | 123 | 1.7 | 4.3 | 0.00 | 0.00 | 0.00 | 91 | 981.9 |
| 20260904192309 | 73 | 88 | 2.6 | 3.5 | 0.00 | 0.00 | 0.00 | 90 | 982.0 |
| 20260904191809 | 73 | 124 | 1.7 | 3.5 | 0.00 | 0.00 | 0.00 | 90 | 982.0 |
| 20260904191309 | 73 | 112 | 2.6 | 2.6 | 0.00 | 0.00 | 0.00 | 90 | 982.0 |
| 20260904190808 | 73 | 127 | 2.6 | 4.3 | 0.00 | 0.00 | 0.00 | 90 | 982.0 |
| 20260904190308 | 73 | 167 | 1.7 | 2.6 | 0.00 | 0.00 | 0.00 | 90 | 982.1 |
| 20260904185808 | 74 | 142 | 1.7 | 2.6 | 0.00 | 0.00 | 0.00 | 88 | 982.1 |
| 20260904185308 | 74 | 143 | 0.9 | 2.6 | 0.00 | 0.00 | 0.00 | 87 | 982.2 |
| 20260904184808 | 74 | 142 | 2.6 | 3.5 | 0.00 | 0.00 | 0.00 | 86 | 982.3 |
| 20260904184308 | 74 | 54 | 0.9 | 1.7 | 0.00 | 0.00 | 0.00 | 86 | 982.3 |
| 20260904182725 | 73 | 41 | 1.7 | 1.7 | 0.00 | 0.00 | 0.00 | 88 | 982.5 |
| 20260904182224 | 74 | 105 | 1.7 | 3.5 | 0.00 | 0.00 | 0.00 | 88 | 982.4 |
| 20260904181723 | 74 | 130 | 0.9 | 1.7 | 0.00 | 0.00 | 0.00 | 87 | 982.5 |
| 20260904180702 | 74 | 144 | 1.7 | 2.6 | 0.00 | 0.00 | 0.00 | 86 | 982.5 |
| 20260904180201 | 74 | 113 | 2.6 | 3.5 | 0.00 | 0.00 | 0.00 | 86 | 982.4 |
| 20260904175701 | 74 | 45 | 2.6 | 3.5 | 0.00 | 0.00 | 0.00 | 85 | 982.5 |
| 20260904175201 | 73 | 293 | 0.9 | 1.7 | 0.00 | 0.00 | 0.00 | 87 | 982.5 |
| 20260904174701 | 73 | 127 | 1.7 | 3.5 | 0.00 | 0.00 | 0.00 | 88 | 982.7 |
| 20260904174200 | 73 | 164 | 0.9 | 1.7 | 0.00 | 0.00 | 0.00 | 86 | 982.8 |
| 20260904173700 | 73 | 153 | 1.7 | 3.5 | 0.00 | 0.00 | 0.00 | 87 | 982.9 |
| 20260904173200 | 72 | 64 | 0.9 | 1.7 | 0.00 | 0.00 | 0.00 | 88 | 983.1 |
| 20260904172659 | 71 | 332 | 1.7 | 2.6 | 0.00 | 0.00 | 0.00 | 89 | 983.3 |
| 20260904172158 | 71 | 243 | 1.7 | 2.6 | 0.00 | 0.00 | 0.00 | 88 | 983.3 |
| 20260904171657 | 71 | 67 | 0.9 | 1.7 | 0.00 | 0.00 | 0.00 | 90 | 983.5 |
| 20260904171157 | 70 | 349 | 1.7 | 3.5 | 0.00 | 0.00 | 0.00 | 92 | 983.5 |
| 20260904170136 | 70 | 350 | 1.7 | 2.6 | 0.00 | 0.00 | 0.00 | 93 | 983.6 |
| 20260904165635 | 70 | 199 | 0.9 | 1.7 | 0.00 | 0.00 | 0.00 | 94 | 983.8 |
| 20260904165135 | 69 | 315 | 2.6 | 2.6 | 0.00 | 0.00 | 0.00 | 94 | 983.9 |
| 20260904164634 | 69 | 252 | 2.6 | 3.5 | 0.00 | 0.00 | 0.00 | 94 | 984.1 |
| 20260904164134 | 69 | 308 | 2.6 | 3.5 | 0.00 | 0.00 | 0.00 | 94 | 984.2 |
| 20260904163113 | 69 | 271 | 2.6 | 3.5 | 0.00 | 0.00 | 0.00 | 94 | 984.4 |
| 20260904162611 | 69 | 0 | 0.0 | 0.0 | 0.00 | 0.00 | 0.00 | 95 | 984.5 |
| 20260904162111 | 69 | 246 | 2.6 | 4.3 | 0.00 | 0.00 | 0.00 | 95 | 984.6 |
| 20260904161611 | 69 | 257 | 1.7 | 2.6 | 0.00 | 0.00 | 0.00 | 95 | 984.7 |
| 20260904161111 | 69 | 255 | 1.7 | 3.5 | 0.00 | 0.00 | 0.00 | 95 | 984.8 |
| 20260904160610 | 69 | 278 | 2.6 | 3.5 | 0.00 | 0.00 | 0.00 | 95 | 984.8 |
| 20260904160110 | 69 | 262 | 1.7 | 3.5 | 0.00 | 0.00 | 0.00 | 95 | 984.8 |
| 20260904154528 | 68 | 250 | 2.6 | 3.5 | 0.00 | 0.00 | 0.00 | 96 | 984.5 |
| 20260904154027 | 68 | 266 | 2.6 | 2.6 | 0.00 | 0.00 | 0.00 | 96 | 984.7 |
| 20260904153527 | 68 | 286 | 1.7 | 2.6 | 0.00 | 0.00 | 0.00 | 96 | 984.7 |
| 20260904153027 | 68 | 268 | 1.7 | 3.5 | 0.00 | 0.00 | 0.00 | 96 | 984.7 |
| 20260904152527 | 68 | 300 | 1.7 | 2.6 | 0.00 | 0.00 | 0.00 | 95 | 984.7 |
| 20260904152026 | 68 | 250 | 1.7 | 2.6 | 0.00 | 0.00 | 0.00 | 95 | 984.7 |
| 20260904151004 | 68 | 244 | 1.7 | 2.6 | 0.00 | 0.00 | 0.00 | 94 | 984.6 |
| 20260904150504 | 68 | 275 | 0.9 | 0.9 | 0.00 | 0.00 | 0.00 | 94 | 984.5 |
| 20260904150004 | 68 | 0 | 0.0 | 0.0 | 0.00 | 0.00 | 0.00 | 93 | 984.4 |
| 20260904145504 | 68 | 0 | 0.0 | 0.0 | 0.00 | 0.00 | 0.00 | 94 | 984.3 |
| 20260904145004 | 68 | 154 | 0.9 | 2.6 | 0.00 | 0.00 | 0.00 | 93 | 984.4 |